Home   Weather   Peoria   Past weeks

Flag for USA Past Weather in Peoria, Illinois, USA — Yesterday and Last 2 Weeks

Now
65 °F

Sunny.


Feels Like: 65 °F
Forecast: 53 / 66 °F
Wind: 16 mph from South

Location: Greater Peoria Regional Airport

Current Time: Feb 22, 2017 at 4:50:12 pm

Latest Report: Feb 22, 2017 at 3:54 pm


Visibility: 10 mi

Pressure: 29.65 "Hg

Humidity: 73%

Dew Point: 56 °F

Location of PeoriaLocation

Past Weather in Peoria — Graph

°F

Peoria Temperature Yesterday

Maximum temperature yesterday: 68 °F (at 2:54 pm)
Minimum temperature yesterday: 54 °F (at 9:54 pm)
Average temperature yesterday: 59 °F

High & Low Weather Summary for the Past Weeks

 TemperatureHumidityPressure
High73 °F (Feb 20, 2:54 pm)100% (Feb 19, 6:59 am)30.46 "Hg (Feb 19, 6:59 am)
Low10 °F (Feb 9, 6:54 am)28% (Feb 12, 1:54 pm)29.53 "Hg (Feb 7, 3:12 pm)
Average43 °F71%29.96 "Hg
* Reported Feb 7 2:54 pm — Feb 22 2:54 pm, Peoria, Weather by CustomWeather, © 2017

Note: Actual official high and low records may vary slightly from our data, if they occured in-between our weather recording intervals... More about our weather records

Advertising

Peoria Weather History for the Previous 24 Hours

Scroll right to see more
 ConditionsComfort  
Time TempWeatherWind HumidityBarometerVisibility
2:54 pm
Wed, Feb 22
65 °FSunny.16 mph73%29.67 "Hg10 mi
1:54 pm63 °FScattered clouds.15 mph78%29.69 "Hg10 mi
1:33 pm62 °FPartly sunny.12 mph80%29.71 "Hg10 mi
12:54 pm60 °FFog.12 mph86%29.73 "Hg6 mi
11:54 am58 °FFog.10 mph97%29.76 "Hg6 mi
11:20 am56 °FFog.12 mph100%29.78 "Hg4 mi
10:54 am56 °FFog.13 mph100%29.79 "Hg4 mi
10:36 am56 °FFog.10 mph100%29.79 "Hg2 mi
10:21 am55 °FFog.8 mph100%29.80 "Hg1 mi
9:54 am54 °FFog.7 mph100%29.81 "Hg0 mi
8:54 am53 °FFog.8 mph100%29.82 "Hg0 mi
7:54 am53 °FFog.10 mph100%29.81 "Hg0 mi
6:54 am53 °FFog.7 mph100%29.81 "Hg0 mi
5:54 am53 °FFog.8 mph100%29.83 "Hg0 mi
4:54 am54 °FFog.8 mph100%29.84 "Hg0 mi
3:54 am55 °FFog.9 mph100%29.85 "Hg0 mi
3:37 am55 °FFog.9 mph100%29.85 "Hg0 mi
2:54 am55 °FFog.7 mph100%29.84 "Hg0 mi
1:54 am55 °FFog.7 mph100%29.85 "Hg0 mi
12:54 am55 °FFog.6 mph100%29.85 "Hg0 mi
11:54 pm
Tue, Feb 21
56 °FFog.6 mph100%29.86 "Hg0 mi
11:30 pm56 °FFog.9 mph100%29.86 "Hg0 mi
11:21 pm55 °FFog.7 mph100%29.86 "Hg0 mi
11:02 pm54 °FFog.8 mph100%29.86 "Hg1 mi
10:54 pm54 °FFog.7 mph100%29.86 "Hg1 mi
10:31 pm54 °FFog.7 mph97%29.86 "Hg2 mi
9:54 pm54 °FFog.6 mph100%29.88 "Hg6 mi
8:54 pm57 °FFog.3 mph93%29.89 "Hg6 mi
7:54 pm59 °FPassing clouds.9 mph87%29.91 "Hg10 mi
6:54 pm61 °FPartly cloudy.6 mph81%29.91 "Hg10 mi
5:54 pm63 °FPassing clouds.6 mph75%29.90 "Hg10 mi
4:54 pm66 °FMostly cloudy.7 mph68%29.89 "Hg10 mi
Weather by CustomWeather, © 2017

See weather overviewHow to use our weather pages